Key West, FL

3:08 PM EDT on July 21, 2017 (GMT -0400)
Key West International

Weather History for KEYW - July, 2013

Change the Weather History Date:

Friday, July 26, 2013

  Actual Average Record
Temperature  
Mean Temperature 84 °F 85 °F  
Max Temperature 88 °F 90 °F 95 °F (1881)
Min Temperature 79 °F 80 °F 72 °F (1919)
Degree Days  
Heating Degree Days 0 0  
Month to date heating degree days 0 0  
Since 1 June heating degree days 0 0  
Since 1 July heating degree days 0 0  
Cooling Degree Days 19 20  
Month to date cooling degree days 456 508  
Year to date cooling degree days 2643 2487  
Since 1 June cooling degree days 1014 1057  
Growing Degree Days 34 (Base 50)    
Moisture  
Dew Point 74 °F    
Average Humidity 74    
Maximum Humidity 85    
Minimum Humidity 63    
Precipitation  
Precipitation 0.01 in 0.11 in 2.81 in (1946)
Month to date precipitation 7.80 2.96  
Year to date precipitation 31.13 17.70  
Snow  
Snow 0.00 in - - ()
Month to date snowfall 0.0  
Since 1 June snowfall 0.0  
Since 1 July snowfall 0.0  
Snow Depth 0.00 in    
Sea Level Pressure  
Sea Level Pressure 30.05 in    
Wind  
Wind Speed 7 mph (West)    
Max Wind Speed 14 mph    
Max Gust Speed 16 mph    
Visibility 10 miles    
Events      
T = Trace of Precipitation, MM = Missing Value Source: NWS Daily Summary

Daily Weather History Graph

Daily Weather History Graph

Search for Another Location

Airport or City:

Trip Planner

Search our weather history database for the weather conditions in past years. The results will help you decide how hot, cold, wet, or windy it might be!

Date:

Astronomy

Jul. 26, 2013 Rise Set
Actual Time 6:52 AM EDT 8:14 PM EDT
Civil Twilight 6:27 AM EDT 8:38 PM EDT
Nautical Twilight 5:58 AM EDT 9:08 PM EDT
Astronomical Twilight 5:28 AM EDT 9:38 PM EDT
Moon 11:06 PM EDT (7/26) 10:52 AM EDT (7/26)
Length of Visible Light 14h 10m
Length of Day
13h 21m
Waning Gibbous, 80% of the Moon is Illuminated
Jul 26
Waning Gibbous
Jul 29
Last Quarter
Aug 6
New
Aug 14
First Quarter
Aug 20
Full

Hourly Weather History & Observations

Time (EDT) Temp. Heat Index Dew Point Humidity Pressure Visibility Wind Dir Wind Speed Gust Speed Precip Events Conditions
12:53 AM 81.0 °F 86.2 °F 73.9 °F 79% 30.06 in 10.0 mi WSW 3.5 mph - N/A   Clear
1:53 AM 81.0 °F 86.2 °F 73.9 °F 79% 30.05 in 10.0 mi West 3.5 mph - N/A   Clear
2:53 AM 81.0 °F 86.2 °F 73.9 °F 79% 30.03 in 10.0 mi West 3.5 mph - N/A   Clear
3:53 AM 80.1 °F 84.2 °F 73.0 °F 79% 30.03 in 10.0 mi WSW 4.6 mph - N/A   Clear
4:53 AM 79.0 °F - 73.0 °F 82% 30.03 in 10.0 mi West 3.5 mph - N/A   Clear
5:53 AM 80.1 °F 84.5 °F 73.9 °F 81% 30.03 in 10.0 mi West 5.8 mph - N/A   Partly Cloudy
6:53 AM 80.1 °F 84.5 °F 73.9 °F 81% 30.04 in 10.0 mi WSW 4.6 mph - N/A   Mostly Cloudy
7:18 AM 82.4 °F 88.2 °F 73.4 °F 74% 30.04 in 10.0 mi WNW 5.8 mph - N/A   Scattered Clouds
7:53 AM 82.0 °F 87.9 °F 73.9 °F 76% 30.06 in 10.0 mi WNW 5.8 mph - N/A   Scattered Clouds
8:53 AM 84.0 °F 91.2 °F 73.9 °F 72% 30.07 in 10.0 mi NW 9.2 mph - N/A   Scattered Clouds
9:53 AM 84.0 °F 91.2 °F 73.9 °F 72% 30.08 in 10.0 mi NW 6.9 mph - N/A   Clear
10:53 AM 84.9 °F 90.7 °F 72.0 °F 65% 30.07 in 10.0 mi WNW 8.1 mph - N/A   Partly Cloudy
11:53 AM 86.0 °F 93.8 °F 73.9 °F 67% 30.07 in 10.0 mi West 6.9 mph - N/A   Clear
12:53 PM 86.0 °F 93.0 °F 73.0 °F 65% 30.07 in 10.0 mi West 5.8 mph - N/A   Clear
1:53 PM 86.0 °F 93.0 °F 73.0 °F 65% 30.06 in 10.0 mi WNW 4.6 mph - N/A   Partly Cloudy
2:53 PM 88.0 °F 96.5 °F 73.9 °F 63% 30.06 in 10.0 mi NW 9.2 mph - N/A   Clear
3:53 PM 87.1 °F 95.4 °F 73.9 °F 65% 30.04 in 10.0 mi WNW 5.8 mph - N/A   Clear
4:53 PM 87.1 °F 96.3 °F 75.0 °F 67% 30.03 in 10.0 mi NW 11.5 mph - N/A   Clear
5:53 PM 86.0 °F 93.8 °F 73.9 °F 67% 30.02 in 10.0 mi WSW 10.4 mph - N/A   Partly Cloudy
6:25 PM 86.0 °F 93.4 °F 73.4 °F 66% 30.02 in 10.0 mi WSW 10.4 mph - N/A   Mostly Cloudy
6:53 PM 86.0 °F 95.1 °F 75.0 °F 70% 30.02 in 10.0 mi WSW 10.4 mph - N/A   Mostly Cloudy
7:06 PM 84.2 °F 90.9 °F 73.4 °F 70% 30.02 in 10.0 mi West 10.4 mph - N/A   Scattered Clouds
7:53 PM 84.9 °F 93.3 °F 75.0 °F 72% 30.03 in 10.0 mi WSW 10.4 mph - N/A   Mostly Cloudy
8:04 PM 84.2 °F 92.3 °F 75.2 °F 74% 30.03 in 10.0 mi WSW 11.5 mph - N/A   Mostly Cloudy
8:44 PM 84.2 °F 92.3 °F 75.2 °F 74% 30.04 in 10.0 mi West 5.8 mph - N/A   Mostly Cloudy
8:53 PM 84.0 °F 91.9 °F 75.0 °F 74% 30.04 in 10.0 mi West 8.1 mph - N/A   Mostly Cloudy
9:19 PM 84.2 °F 92.3 °F 75.2 °F 74% 30.04 in 10.0 mi WNW 9.2 mph - N/A   Mostly Cloudy
9:53 PM 84.0 °F 91.9 °F 75.0 °F 74% 30.04 in 10.0 mi West 5.8 mph - N/A   Clear
10:53 PM 84.0 °F 91.9 °F 75.0 °F 74% 30.06 in 10.0 mi WNW 8.1 mph - N/A   Partly Cloudy
11:53 PM 84.0 °F 91.9 °F 75.0 °F 74% 30.05 in 10.0 mi West 5.8 mph - N/A   Clear